GLOBALSTAR M073 (37193 NORAD) Tracking and Keplerian Element Data

This shows tracking and keplerian element data for the satellite.

Feedback or suggestion? Click here.




ElementValue
Catalog37193
NameGLOBALSTAR M073
Epoch Orbit66106
Epoch Day35.00063495
Epoch Year2025
RAAN140.7784
Inclination52.0055
Eccentricity8.67E-05
Argument of Perigee103.3594
Mean Anonmoly68.1916
Mean Motion12.62262886
Decay Rate-8.3E-07
L11 37193U 10054F 25035.00063495 -.00000083 00000+0 11734-3 0 9995
L22 37193 52.0055 140.7784 0000867 103.3594 68.1916 12.62262886661062



Live tracking and technical data element details for GLOBALSTAR M073 (NORAD 37193). GLOBALSTAR M073 can be tracked NOW for your location showing map with azimuth and elevation plus other details from your city location.







IsCatalogInMostPopularTable: catalog: 37193, numindb: 346
Update: records affected: 1



GetName: 37193 GLOBALSTAR M073

Hit Count: updated at: Thu, 22 May 2025 04:07:27 GMT